Location: Newark
(32.5667°N, 57.6833°E)
Time: 15:20:23
(UTC+00:00)

OTV 5 (USA 277) - Visible Passes

Search period start: 22 August 2019 00:00
Search period end: 01 September 2019 00:00
Orbit: 305 x 329 km, 54.5° (Epoch: 20 August)

Date Brightness Start Highest point End Pass type
(mag) Time Alt. Az. Time Alt. Az. Time Alt. Az.
22 Aug ? 15:56:49 10° SSW 15:58:39 31° S 15:58:39 31° S visible
22 Aug ? 23:55:29 12° N 23:57:17 22° NE 23:59:26 10° E visible
23 Aug ? 16:11:16 10° WSW 16:13:53 45° NW 16:15:20 22° NNE visible
24 Aug ? 00:12:20 56° SE 00:12:20 56° SE 00:14:30 10° SE visible
24 Aug ? 16:26:50 10° W 16:28:33 15° NW 16:30:16 10° N visible
25 Aug ? 15:06:01 10° SW 15:08:44 84° SE 15:11:25 10° NE visible
26 Aug ? 15:20:59 10° WSW 15:23:18 25° NW 15:25:38 10° NNE visible
